Location: Dob?e?
(49.9411°N, 15.1496°E)
Time: 17:16:30
(UTC+00:00)

STARLINK-1213 - Pass Details

Date: 07 June 2020
Orbit: 548 x 551 km, 53.0° (Epoch: 13 July)

Event Time Altitude Azimuth Distance (km) Brightness Sun altitude
Exits shadow 00:20:52 14° 251° (WSW) 1,550 5.6 -15.0°
Maximum altitude 00:24:20 83° 339° (NNW) 548 3.6 -14.8°
Drops below altitude 10° 00:28:26 10° 69° (ENE) 1,799 6.9 -14.6°
Enters shadow 01:27:27 -65° 261° (W) 12,139 10.3 -10.1°
